TimeMST,TemperatureF,Dew PointF,Humidity,Sea Level PressureIn,VisibilityMPH,Wind Direction,Wind SpeedMPH,Gust SpeedMPH,PrecipitationIn,Events,Conditions,WindDirDegrees,DateUTC
12:15 AM,35.4,4.1,27,30.19,10.0,Calm,Calm,-,N/A,,Clear,0,2014-01-18 07:15:00
12:35 AM,34.5,5.5,30,30.19,10.0,Calm,Calm,-,N/A,,Clear,0,2014-01-18 07:35:00
12:55 AM,33.3,6.4,32,30.19,10.0,Calm,Calm,-,N/A,,Clear,0,2014-01-18 07:55:00
1:15 AM,33.4,6.3,32,30.19,10.0,Calm,Calm,-,N/A,,Clear,0,2014-01-18 08:15:00
1:35 AM,32.5,6.4,33,30.19,10.0,NNE,3.5,-,N/A,,Clear,30,2014-01-18 08:35:00
1:55 AM,32.4,6.6,34,30.19,10.0,North,3.5,-,N/A,,Clear,350,2014-01-18 08:55:00
2:15 AM,31.3,7.5,37,30.20,10.0,North,3.5,-,N/A,,Clear,360,2014-01-18 09:15:00
2:35 AM,29.8,7.5,39,30.20,10.0,NNE,5.8,-,N/A,,Clear,20,2014-01-18 09:35:00
2:50 AM,29.3,7.5,40,30.21,10.0,NNE,5.8,-,N/A,,Clear,20,2014-01-18 09:50:00
3:15 AM,28.9,7.7,41,30.21,10.0,West,3.5,-,N/A,,Clear,280,2014-01-18 10:15:00
3:35 AM,30.0,7.3,38,30.20,10.0,Calm,Calm,-,N/A,,Clear,0,2014-01-18 10:35:00
3:55 AM,31.6,6.8,35,30.19,10.0,Calm,Calm,-,N/A,,Clear,0,2014-01-18 10:55:00
4:15 AM,29.5,8.2,41,30.19,10.0,Calm,Calm,-,N/A,,Clear,0,2014-01-18 11:15:00
4:35 AM,28.8,8.1,42,30.19,10.0,North,4.6,-,N/A,,Clear,10,2014-01-18 11:35:00
4:55 AM,28.9,8.1,41,30.19,10.0,NNW,4.6,-,N/A,,Clear,340,2014-01-18 11:55:00
5:15 AM,30.0,8.6,41,30.19,10.0,NNW,9.2,-,N/A,,Clear,340,2014-01-18 12:15:00
5:35 AM,29.5,8.6,42,30.19,10.0,North,10.4,-,N/A,,Clear,350,2014-01-18 12:35:00
5:55 AM,30.2,8.1,39,30.20,10.0,North,9.2,-,N/A,,Clear,360,2014-01-18 12:55:00
6:15 AM,30.2,7.7,39,30.21,10.0,North,6.9,-,N/A,,Clear,350,2014-01-18 13:15:00
6:35 AM,30.7,8.6,40,30.21,10.0,NNW,9.2,-,N/A,,Clear,340,2014-01-18 13:35:00
6:55 AM,31.1,8.8,39,30.21,10.0,North,8.1,-,N/A,,Clear,350,2014-01-18 13:55:00
7:15 AM,32.0,8.6,38,30.22,10.0,NNE,4.6,-,N/A,,Clear,20,2014-01-18 14:15:00
7:35 AM,29.8,9.0,42,30.23,10.0,Calm,Calm,-,N/A,,Clear,0,2014-01-18 14:35:00
7:55 AM,32.0,8.6,38,30.24,10.0,Calm,Calm,-,N/A,,Clear,0,2014-01-18 14:55:00
8:15 AM,32.0,8.2,37,30.25,10.0,Calm,Calm,-,N/A,,Clear,0,2014-01-18 15:15:00
8:35 AM,32.7,9.5,38,30.25,10.0,SE,3.5,-,N/A,,Clear,140,2014-01-18 15:35:00
8:55 AM,32.2,8.4,37,30.27,10.0,NE,5.8,-,N/A,,Clear,40,2014-01-18 15:55:00
9:15 AM,32.0,8.4,37,30.28,10.0,Calm,Calm,-,N/A,,Clear,0,2014-01-18 16:15:00
9:35 AM,32.9,9.0,37,30.29,10.0,NNE,5.8,-,N/A,,Clear,30,2014-01-18 16:35:00
9:55 AM,34.7,8.2,33,30.30,10.0,North,6.9,-,N/A,,Clear,360,2014-01-18 16:55:00
10:15 AM,38.3,5.4,25,30.31,10.0,NNW,8.1,-,N/A,,Clear,330,2014-01-18 17:15:00
10:35 AM,40.1,4.8,23,30.31,10.0,North,9.2,16.1,N/A,,Clear,10,2014-01-18 17:35:00
10:55 AM,41.4,3.6,21,30.31,10.0,North,11.5,17.3,N/A,,Clear,360,2014-01-18 17:55:00
11:15 AM,43.0,2.1,18,30.30,10.0,NW,4.6,-,N/A,,Clear,320,2014-01-18 18:15:00
11:35 AM,43.7,0.5,17,30.29,10.0,North,4.6,17.3,N/A,,Clear,350,2014-01-18 18:35:00
11:55 AM,44.6,-0.2,16,30.28,10.0,North,9.2,-,N/A,,Clear,360,2014-01-18 18:55:00
12:15 PM,45.0,-1.3,15,30.27,10.0,NNE,8.1,-,N/A,,Clear,30,2014-01-18 19:15:00
12:35 PM,45.7,-1.3,14,30.26,10.0,NE,13.8,19.6,N/A,,Clear,40,2014-01-18 19:35:00
12:55 PM,45.7,-0.0,15,30.26,10.0,NE,11.5,-,N/A,,Clear,40,2014-01-18 19:55:00
1:15 PM,46.4,0.3,15,30.26,10.0,NNE,8.1,-,N/A,,Clear,20,2014-01-18 20:15:00
1:35 PM,46.4,1.2,15,30.25,10.0,NE,6.9,-,N/A,,Clear,50,2014-01-18 20:35:00
1:55 PM,46.6,1.4,16,30.25,10.0,NE,6.9,16.1,N/A,,Clear,50,2014-01-18 20:55:00
2:15 PM,47.1,1.4,15,30.25,10.0,NE,3.5,-,N/A,,Clear,40,2014-01-18 21:15:00
2:35 PM,47.5,1.0,15,30.26,10.0,NE,10.4,-,N/A,,Clear,40,2014-01-18 21:35:00
2:55 PM,47.7,0.3,14,30.26,10.0,NE,5.8,-,N/A,,Clear,40,2014-01-18 21:55:00
3:15 PM,48.4,-0.0,14,30.27,10.0,Calm,Calm,-,N/A,,Clear,0,2014-01-18 22:15:00
3:35 PM,48.6,-0.2,13,30.27,10.0,Calm,Calm,-,N/A,,Clear,0,2014-01-18 22:35:00
3:55 PM,49.1,-0.9,13,30.27,10.0,Calm,Calm,-,N/A,,Clear,0,2014-01-18 22:55:00
4:15 PM,48.7,0.1,14,30.27,10.0,NE,3.5,-,N/A,,Clear,50,2014-01-18 23:15:00
4:35 PM,48.0,1.4,15,30.28,10.0,East,5.8,-,N/A,,Clear,80,2014-01-18 23:35:00
4:55 PM,47.3,1.9,15,30.28,10.0,East,4.6,-,N/A,,Clear,90,2014-01-18 23:55:00
5:15 PM,46.4,2.1,16,30.29,10.0,ENE,3.5,-,N/A,,Clear,70,2014-01-19 00:15:00
5:35 PM,45.5,2.7,17,30.30,10.0,Calm,Calm,-,N/A,,Clear,0,2014-01-19 00:35:00
5:55 PM,45.7,2.3,17,30.30,10.0,Calm,Calm,-,N/A,,Clear,0,2014-01-19 00:55:00
6:15 PM,44.6,3.0,18,30.31,10.0,West,3.5,-,N/A,,Clear,270,2014-01-19 01:15:00
6:35 PM,43.2,4.3,20,30.31,10.0,Calm,Calm,-,N/A,,Clear,0,2014-01-19 01:35:00
6:55 PM,44.1,2.8,18,30.31,10.0,Calm,Calm,-,N/A,,Clear,0,2014-01-19 01:55:00
7:15 PM,43.7,3.2,19,30.33,10.0,West,3.5,-,N/A,,Clear,280,2014-01-19 02:15:00
7:35 PM,42.6,3.6,20,30.33,10.0,NW,3.5,-,N/A,,Clear,310,2014-01-19 02:35:00
7:55 PM,42.3,3.4,20,30.33,10.0,WNW,3.5,-,N/A,,Clear,290,2014-01-19 02:55:00
8:15 PM,41.7,3.9,21,30.33,10.0,West,4.6,-,N/A,,Clear,270,2014-01-19 03:15:00
8:35 PM,39.4,4.8,24,30.33,10.0,Calm,Calm,-,N/A,,Clear,0,2014-01-19 03:35:00
8:55 PM,41.5,3.7,21,30.33,10.0,Calm,Calm,-,N/A,,Clear,0,2014-01-19 03:55:00
9:15 PM,40.3,4.3,22,30.33,10.0,Calm,Calm,-,N/A,,Clear,0,2014-01-19 04:15:00
9:35 PM,40.5,4.3,22,30.33,10.0,Calm,Calm,-,N/A,,Clear,0,2014-01-19 04:35:00
9:55 PM,39.9,4.8,23,30.34,10.0,Calm,Calm,-,N/A,,Clear,0,2014-01-19 04:55:00
10:15 PM,39.9,4.6,23,30.34,10.0,Calm,Calm,-,N/A,,Clear,0,2014-01-19 05:15:00
10:35 PM,38.5,5.5,25,30.34,10.0,Calm,Calm,-,N/A,,Clear,0,2014-01-19 05:35:00
10:55 PM,36.9,6.4,28,30.34,10.0,Calm,Calm,-,N/A,,Clear,0,2014-01-19 05:55:00
11:15 PM,35.6,7.0,30,30.34,10.0,Calm,Calm,-,N/A,,Clear,0,2014-01-19 06:15:00
11:35 PM,35.6,7.5,31,30.34,10.0,Calm,Calm,-,N/A,,Clear,0,2014-01-19 06:35:00
11:55 PM,35.1,6.6,31,30.34,10.0,Calm,Calm,-,N/A,,Clear,0,2014-01-19 06:55:00